|
MaSat-1 - Orbit
|
Black Swamp Observatory;
03:28:10
| Home | Info | Passes |
|
View from above orbital plane
|
View from above satellite
|
Ground track
|
The orbit data is extracted from the following two-line orbital elements,
1 38081U 12006E 13144.69449347 .00086252 40057-5 17916-2 0 988
2 38081 069.4735 238.9392 0621427 168.7005 192.8937 14.44425685 66342
| Epoch (UTC): | 24 May 2013 16:40:04 |
| Eccentricity: | 0.0621427 |
| inclination: | 69.4735° |
| perigee height: | 301 km |
| apogee height: | 1186 km |
| right ascension of ascending node: | 238.9392° |
| argument of perigee: | 168.7005° |
| revolutions per day: | 14.44425685 |
| mean anomaly at epoch: | 192.8937° |
| orbit number at epoch: | 6634 |
The dashed part of the orbit path shows where the satellite is in the earth's shadow,
|
|